Regional Weather Roundup
Issued by NWS

Home | Current Version | Previous Version | Graphics & Text | Print | Product List | Glossary On
Versions: 1 2 3 4 5 6 7 8 9 10 11 12 13 14 15 16 17 18 19 20 21 22 23 24 25 26 27 28 29 30 31 32 33 34 35 36 37 38 39 40 41 42 43 44 45 46 47 48 49 50
000
ASUS43 KOAX 282002
RWRNE

WEATHER ROUNDUP FOR NEBRASKA
NATIONAL WEATHER SERVICE OMAHA NE
300 PM CDT THU AUG 28 2014

NOTES: SATELLITE DATA IS BEING USED TO AUGMENT CLOUD COVER ABOVE
       12000 FEET.
       "FAIR" INDICATES FEW OR NO CLOUDS BELOW 12,000 FEET WITH NO
       SIGNIFICANT WEATHER AND/OR OBSTRUCTIONS TO VISIBILITY.

  * THESE STATIONS DO NOT REPORT WEATHER SUCH AS RAIN...SNOW OR FOG.

NEZ001>004-019>022-054>056-282100-
NEBRASKA PANHANDLE

CITY           SKY/WX    TMP DP  RH WIND       PRES   REMARKS
SCOTTSBLUFF    LGT RAIN  63  63 100 W8        30.08R
ALLIANCE       TSTM      63  60  90 N15       30.04F
CHADRON        LGT RAIN  68  62  81 W10       30.02S
KIMBALL        DRIZZLE   59  57  94 NW12      30.10S
SIDNEY         CLOUDY    66  57  72 NW20G28   30.08R
$$

NEZ057>060-069>072-079>082-282100-
SOUTHWEST NEBRASKA

CITY           SKY/WX    TMP DP  RH WIND       PRES   REMARKS
NORTH PLATTE   SUNNY     81  64  56 W9        29.91F
IMPERIAL       MOSUNNY   77  61  57 NW9       29.96F
LEXINGTON      MOSUNNY   80  68  67 S6        29.89F
MCCOOK         CLOUDY    81  61  50 NW7       29.92S
OGALLALA       SUNNY     75  62  63 NW15      29.96F
$$

NEZ005>010-023>029-035>040-094-282100-
NORTH CENTRAL NEBRASKA

CITY           SKY/WX    TMP DP  RH WIND       PRES   REMARKS
VALENTINE      PTSUNNY   77  66  68 NW14      29.90F
AINSWORTH      MOSUNNY   78  64  62 N3        29.88F
BROKEN BOW     PTSUNNY   82  65  56 E3        29.88F
O`NEILL        MOSUNNY   78  69  74 S12       29.87F
ORD            PTSUNNY   78  67  68 S9        29.87S
THEDFORD       PTSUNNY   81  62  53 CALM      29.91S
$$

NEZ041-046>049-061>064-073>077-083>087-282100-
SOUTH CENTRAL NEBRASKA

CITY           SKY/WX    TMP DP  RH WIND       PRES   REMARKS
GRAND ISLAND   CLOUDY    77  68  73 SW7       29.89F
AURORA         PTSUNNY   77  71  82 SW5       29.89F
HASTINGS       CLOUDY    76  65  68 S5        29.89F
HEBRON         CLOUDY    78  65  65 S9        29.90F
HOLDREGE       CLOUDY    74  67  78 S9        29.90F
KEARNEY *      CLOUDY    73  66  78 S9        29.90F
YORK           LGT RAIN  81 N/A N/A S16G22    29.88F
$$

NEZ011>018-030>034-042>045-282100-
NORTHEAST NEBRASKA

CITY           SKY/WX    TMP DP  RH WIND       PRES   REMARKS
NORFOLK        PTSUNNY   79  70  74 S10       29.87F
ALBION         CLOUDY    75  68  77 S9G16     29.88F
BLAIR          CLOUDY    81  72  74 S8        29.89F
FREMONT        CLOUDY    80  71  74 SE7       29.88F
TEKAMAH        PTSUNNY   79  73  82 S9        29.88F
WAYNE          PTSUNNY   79  73  81 S13G18    29.87F
$$

NEZ050>053-065>068-078-088>093-282100-
SOUTHEAST NEBRASKA

CITY           SKY/WX    TMP DP  RH WIND       PRES   REMARKS
LINCOLN        CLOUDY    81  69  67 S16       29.89F
OMAHA EPPLEY   PTSUNNY   82  71  69 S9        29.88F
BEATRICE       CLOUDY    78  71  77 S13       29.90F
FALLS CITY     CLOUDY    84  76  76 E6        29.88F HX  93
NEBRASKA CITY  PTSUNNY   81  71  71 S12       29.91F
PLATTSMOUTH    PTSUNNY   82  70  68 S8        29.90F
$$

NEZ044-045-051>053-067-282100-
OMAHA AREA

CITY           SKY/WX    TMP DP  RH WIND       PRES   REMARKS
OMAHA EPPLEY   PTSUNNY   82  71  69 S9        29.88F
BLAIR          CLOUDY    81  72  74 S8        29.89F
FREMONT        CLOUDY    80  71  74 SE7       29.88F
MILLARD        MOSUNNY   82  71  69 S10       29.88F
OFFUTT AFB     MOSUNNY   83  74  76 S7        29.89F
PLATTSMOUTH    PTSUNNY   82  70  68 S8        29.90F
WAHOO          FAIR      81  70  70 S7        29.88F
$$



USA.gov is the U.S. government's official web portal to all federal, state and local government web resources and services.